Tiempo atmosférico en la estación meteorológica de Cabo de Gata, Almería (42 m.)

Fecha
DESCASC
Temp. máxima en grados centígrados (hora)
DESCASC
Temp. mínima en grados centígrados (hora)
DESCASC
Temp. media en grados centígrados
DESCASC
Racha de viento máxima en m/sg (hora)
DESCASC
Velocidad máxima media en intervalos de 10 minutos(hora)
DESCASC
Precipitaciones diarias en mm
DESCASC
Precipitaciones de 00:00 a 06:00 en mm
DESCASC
Precipitaciones de 06:00 a 12:00 en mm
DESCASC
Precipitaciones de 12:00 a 18:00 en mm
DESCASC
Precipitaciones de 18:00 a 24:00 en mm
DESCASC
23-11-2017 20.1 (12:40) 14.2 (07:20) 17.2 10.28 (09:10) 6.39 (21:20) 0 0 0 0 0
22-11-2017 20.7 (13:10) 13.9 (07:40) 17.3 9.17 (23:30) 5.83 (22:50) 0 0 0 0 0
21-11-2017 21 (12:30) 14.7 (06:20) 17.8 6.67 (00:30) 4.17 (00:30) 0 0 0 0 0
20-11-2017 20.3 (12:20) 15.3 (04:10) 17.8 10 (15:40) 8.33 (13:50) 0 0 0 0 0
19-11-2017 19.7 (12:20) 15.6 (00:00) 17.7 12.78 (11:40) 8.61 (12:40) 0 0 0 0 0
18-11-2017 18.9 (10:20) 15 (00:00) 16.9 8.61 (23:40) 6.39 (12:20) 0 0 0 0 0
17-11-2017 19.9 (13:00) 14.5 (00:00) 17.2 5.56 (11:40) 3.89 (11:40) 0 0 0 0 0
16-11-2017 20.8 (13:30) 13.7 (00:00) 17.2 4.72 (23:40) 3.33 (22:50) 0 0 0 0 0
15-11-2017 20.1 (13:20) 14.3 (00:00) 17.2 8.06 (01:10) 5.83 (01:00) 0 0 0 0 0
14-11-2017 17.7 (00:00) 14.1 (00:00) 15.9 13.06 (00:10) 8.89 (14:40) 0 0 0 0 0
13-11-2017 22.8 (12:50) 15.4 (00:00) 19.1 14.17 (23:50) 9.72 (21:10) 0 0 0 0 0
12-11-2017 21.4 (13:00) 15.8 (00:00) 18.6 10 (07:20) 7.22 (01:30) 0 0 0 0 0
11-11-2017 21.7 (13:10) 15.6 (00:00) 18.7 12.22 (03:40) 8.61 (01:20) 0 0 0 0 0
10-11-2017 19.6 (13:20) 13.3 (00:00) 16.5 14.17 (14:00) 9.17 (14:00) 0 0 0 0 0
09-11-2017 20.3 (11:50) 14.8 (00:00) 17.5 18.61 (13:00) 11.67 (15:50) 0 0 0 0 0
08-11-2017 22.5 (13:00) 14.4 (00:00) 18.4 6.39 (04:40) 5 (04:40) 0 0 0 0 0
07-11-2017 22.2 (12:50) 15.2 (00:00) 18.7 4.72 (23:40) 3.33 (03:40) 0 0 0 0 0
06-11-2017 21.3 (10:10) 15.8 (00:00) 18.5 12.22 (12:00) 9.17 (12:10) 0 0 0 0 0
05-11-2017 24 (13:00) 18.2 (00:00) 21.1 14.72 (00:20) 11.11 (00:40) 0 0 0 0 0
04-11-2017 20.4 (09:00) 18.8 (00:00) 19.6 15.56 (23:40) 10.83 (23:30) 0.2 0 0 0.2 0
03-11-2017 22.5 (13:20) 18.8 (00:00) 20.6 7.22 (23:50) 5 (15:30) 0 0 0 0 0
02-11-2017 23.2 (12:30) 18.6 (05:00) 20.9 12.78 (14:20) 8.61 (14:10) 0 0 0 0 0
01-11-2017 23 (11:40) 18.6 (00:00) 20.8 16.11 (17:40) 11.67 (17:50) 0 0 0 0 0
31-10-2017 23.3 (12:10) 19.2 (00:00) 21.3 15 (15:50) 9.72 (13:50) 0 0 0 0 0
30-10-2017 24.4 (12:20) 18.9 (00:00) 21.6 6.39 (17:10) 5 (18:00) 0 0 0 0 0
29-10-2017 23.5 (11:20) 19.4 (00:00) 21.4 12.22 (13:00) 9.44 (15:10) 0 0 0 0 0
28-10-2017 23.8 (13:50) 18.2 (00:00) 21 16.94 (12:40) 10.83 (15:10) 0 0 0 0 0
27-10-2017 23.4 (10:50) 19.7 (00:00) 21.6 11.39 (12:40) 8.89 (12:50) 0 0 0 0 0
26-10-2017 25 (13:00) 21.1 (00:00) 23.1 15.56 (16:40) 10.83 (19:50) 0 0 0 0 0
25-10-2017 24.5 (12:30) 17.7 (00:00) 21.1 11.39 (15:20) 7.78 (14:20) 0 0 0 0 0

Gráficas

Temp. máximas Temp. mínimas Temp. medias Precipitaciones Rachas de viento máximas Velocidades máximas media en intervalos de 10 minutos

Datos horarios

Fecha y hora oficial Temperatura (ºC) Velocidad del viento (km/h) Dirección del viento Racha (km/h) Dirección de racha Precipitación (mm) Presión (hPa) Tendencia (hPa) Humedad (%)
2017-11-23 23:00:00 16.1 12 Oeste 27 Noroeste 0 -- -- 85
2017-11-23 22:00:00 16.3 15 Oeste 30 Oeste 0 -- -- 86
2017-11-23 21:00:00 16.6 22 Oeste 30 Oeste 0 -- -- 85
2017-11-23 20:00:00 16.6 20 Oeste 28 Oeste 0 -- -- 83
2017-11-23 19:00:00 16.9 17 Oeste 26 Oeste 0 -- -- 82
2017-11-23 18:00:00 17.1 16 Oeste 23 Oeste 0 -- -- 79
2017-11-23 17:00:00 17.7 10 Oeste 18 Oeste 0 -- -- 77
2017-11-23 16:00:00 18 13 Oeste 20 Oeste 0 -- -- 75
2017-11-23 15:00:00 18.6 10 Oeste 20 Noroeste 0 -- -- 73
2017-11-23 14:00:00 18.8 8 Oeste 14 Oeste 0 -- -- 68
2017-11-23 13:00:00 20.1 8 Oeste 17 Noroeste 0 -- -- 67
2017-11-23 12:00:00 19.4 7 Oeste 15 Oeste 0 -- -- 70
2017-11-23 11:00:00 18.2 10 Oeste 24 Oeste 0 -- -- 76
2017-11-23 10:00:00 16.5 15 Noroeste 37 Noroeste 0 -- -- 80
2017-11-23 09:00:00 15.4 19 Noroeste 29 Oeste 0 -- -- 83
2017-11-23 08:00:00 14.3 13 Noroeste 22 Oeste 0 -- -- 84
2017-11-23 07:00:00 14.4 11 Noroeste 24 Noroeste 0 -- -- 83
2017-11-23 06:00:00 14.7 15 Noroeste 27 Oeste 0 -- -- 83
2017-11-23 05:00:00 14.9 16 Oeste 32 Oeste 0 -- -- 83
2017-11-23 04:00:00 15 22 Noroeste 30 Noroeste 0 -- -- 82
2017-11-23 03:00:00 14.8 12 Noroeste 29 Noroeste 0 -- -- 82
2017-11-23 02:00:00 14.9 19 Noroeste 28 Noroeste 0 -- -- 83
2017-11-23 01:00:00 15.1 21 Noroeste 30 Noroeste 0 -- -- 84
2017-11-23 00:00:00 15.4 19 Oeste 33 Noroeste 0 -- -- 84
2017-11-22 23:00:00 15.7 20 Oeste 31 Noroeste 0 -- -- 84
2017-11-22 22:00:00 16 16 Oeste 27 Oeste 0 -- -- 82
2017-11-22 21:00:00 15.9 15 Oeste 23 Oeste 0 -- -- 81
2017-11-22 20:00:00 15.7 7 Noroeste 18 Oeste 0 -- -- 79
2017-11-22 19:00:00 16.2 9 Oeste 15 Oeste 0 -- -- 78
2017-11-22 18:00:00 16.7 7 Oeste 13 Oeste 0 -- -- 76
2017-11-22 17:00:00 17.5 4 Oeste 13 Oeste 0 -- -- 74
2017-11-22 16:00:00 18.2 5 Oeste 9 Oeste 0 -- -- 71
2017-11-22 15:00:00 19 7 Oeste 12 Sudoeste 0 -- -- 68
2017-11-22 14:00:00 19.5 3 Sudoeste 7 Oeste 0 -- -- 64
2017-11-22 13:00:00 20.4 2 Sudeste 5 Sudoeste 0 -- -- 65
2017-11-22 12:00:00 20 2 Sur 11 Noroeste 0 -- -- 66
2017-11-22 11:00:00 18.7 2 Sudoeste 11 Noroeste 0 -- -- 72
2017-11-22 10:00:00 16.6 5 Este 13 Este 0 -- -- 75
2017-11-22 09:00:00 16.1 6 Este 14 Este 0 -- -- 74
2017-11-22 08:00:00 14.2 3 Norte 7 Noroeste 0 -- -- 70
2017-11-22 07:00:00 14.7 0 Calma 8 Noroeste 0 -- -- 72
2017-11-22 06:00:00 15.1 4 Nordeste 7 Noroeste 0 -- -- 74
2017-11-22 05:00:00 14.4 6 Norte 11 Norte 0 -- -- 73
2017-11-22 04:00:00 15.3 4 Norte 8 Noroeste 0 -- -- 75
2017-11-22 03:00:00 15 3 Noroeste 10 Oeste 0 -- -- 72
2017-11-22 02:00:00 14.4 7 Noroeste 11 Noroeste 0 -- -- 72
2017-11-22 01:00:00 16.3 6 Este 10 Este 0 -- -- 74
2017-11-22 00:00:00 15.9 0 Calma 8 Este 0 -- -- 72
2017-11-21 23:00:00 16.2 4 Nordeste 6 Este 0 -- -- 69
2017-11-21 22:00:00 16 2 Norte 6 Norte 0 -- -- 54
2017-11-21 21:00:00 16 2 Noroeste 9 Noroeste 0 -- -- 57
2017-11-21 20:00:00 16.1 2 Norte 9 Norte 0 -- -- 63
2017-11-21 19:00:00 16.4 5 Norte 13 Noroeste 0 -- -- 72
2017-11-21 18:00:00 17.4 5 Oeste 9 Oeste 0 -- -- 78
2017-11-21 17:00:00 18.2 4 Oeste 9 Noroeste 0 -- -- 76
2017-11-21 16:00:00 19.1 0 Calma 6 Oeste 0 -- -- 73
2017-11-21 15:00:00 20.2 2 Sudeste 7 Sudeste 0 -- -- 73
2017-11-21 14:00:00 20 4 Sudeste 10 Sudeste 0 -- -- 70
2017-11-21 13:00:00 20.9 6 Este 10 Este 0 -- -- 70
2017-11-21 12:00:00 20.7 6 Este 11 Este 0 -- -- 72
2017-11-21 11:00:00 20 6 Este 14 Este 0 -- -- 73
2017-11-21 10:00:00 19.4 8 Este 13 Este 0 -- -- 73
2017-11-21 09:00:00 17.8 7 Este 11 Este 0 -- -- 73
2017-11-21 08:00:00 16.2 5 Este 9 Este 0 -- -- 72
2017-11-21 07:00:00 16.3 5 Nordeste 16 Norte 0 -- -- 62
2017-11-21 06:00:00 15.1 8 Norte 14 Norte 0 -- -- 78
2017-11-21 05:00:00 15.3 7 Norte 10 Norte 0 -- -- 83
2017-11-21 04:00:00 16.1 4 Norte 9 Nordeste 0 -- -- 82
2017-11-21 03:00:00 16.4 3 Norte 9 Nordeste 0 -- -- 81
2017-11-21 02:00:00 16.7 6 Nordeste 13 Este 0 -- -- 77
2017-11-21 01:00:00 16.9 10 Este 24 Este 0 -- -- 73
2017-11-21 00:00:00 16.1 2 Este 5 Este 0 -- -- 67
2017-11-20 23:00:00 16.3 0 Calma 3 Este 0 -- -- 69
2017-11-20 22:00:00 16.3 3 Noroeste 8 Noroeste 0 -- -- 64
2017-11-20 21:00:00 17.4 4 Este 7 Este 0 -- -- 71
2017-11-20 20:00:00 17.1 3 Sudeste 10 Noroeste 0 -- -- 65
2017-11-20 19:00:00 16.3 3 Norte 17 Este 0 -- -- 77
2017-11-20 18:00:00 17.7 10 Este 26 Este 0 -- -- 80
2017-11-20 17:00:00 17.8 23 Este 32 Este 0 -- -- 80
2017-11-20 16:00:00 17.9 26 Este 36 Este 0 -- -- 78
2017-11-20 15:00:00 18.5 27 Este 35 Este 0 -- -- 75
2017-11-20 14:00:00 18.3 28 Este 35 Este 0 -- -- 71
2017-11-20 13:00:00 19.6 26 Este 34 Este 0 -- -- 66
2017-11-20 12:00:00 20 23 Este 30 Este 0 -- -- 59
2017-11-20 11:00:00 19.6 5 Sur 18 Este 0 -- -- 67
2017-11-20 10:00:00 18.9 6 Este 18 Sudeste 0 -- -- 73
2017-11-20 09:00:00 16.2 5 Norte 11 Noroeste 0 -- -- 80
2017-11-20 08:00:00 15.4 7 Noroeste 13 Noroeste 0 -- -- 81
2017-11-20 07:00:00 15.5 3 Norte 13 Norte 0 -- -- 80
2017-11-20 06:00:00 15.8 7 Nordeste 14 Este 0 -- -- 78
2017-11-20 05:00:00 15.7 3 Este 12 Noroeste 0 -- -- 75
2017-11-20 04:00:00 15.4 7 Norte 14 Norte 0 -- -- 79
2017-11-20 03:00:00 15.8 6 Noroeste 15 Este 0 -- -- 79
2017-11-20 02:00:00 16.2 7 Nordeste 17 Nordeste 0 -- -- 79
2017-11-20 01:00:00 16.5 3 Norte 16 Este 0 -- -- 78
2017-11-20 00:00:00 16.6 4 Nordeste 12 Sudeste 0 -- -- 77
2017-11-19 23:00:00 16.5 6 Nordeste 11 Nordeste 0 -- -- 77
2017-11-19 22:00:00 16.5 8 Norte 12 Norte 0 -- -- 78
2017-11-19 21:00:00 16.5 6 Norte 12 Norte 0 -- -- 78
2017-11-19 20:00:00 16.9 7 Norte 24 Nordeste 0 -- -- 77
2017-11-19 19:00:00 17.4 13 Nordeste 26 Este 0 -- -- 76
2017-11-19 18:00:00 17.7 16 Este 37 Este 0 -- -- 76
2017-11-19 17:00:00 18 26 Nordeste 41 Nordeste 0 -- -- 75
2017-11-19 16:00:00 18.4 21 Nordeste 39 Este 0 -- -- 72
2017-11-19 15:00:00 19 24 Este 40 Este 0 -- -- 70
2017-11-19 14:00:00 18.7 23 Este 44 Este 0 -- -- 69
2017-11-19 13:00:00 19.4 25 Este 45 Este 0 -- -- 65
2017-11-19 12:00:00 19.4 31 Este 46 Nordeste 0 -- -- 65
2017-11-19 11:00:00 19 25 Nordeste 44 Nordeste 0 -- -- 67
2017-11-19 10:00:00 18.3 18 Nordeste 33 Nordeste 0 -- -- 71
2017-11-19 09:00:00 17 9 Nordeste 27 Este 0 -- -- 76
2017-11-19 08:00:00 15.8 5 Norte 20 Este 0 -- -- 77
2017-11-19 07:00:00 15.9 10 Nordeste 26 Nordeste 0 -- -- 77
2017-11-19 06:00:00 15.7 8 Norte 21 Nordeste 0 -- -- 78
2017-11-19 05:00:00 15.8 7 Norte 39 Nordeste 0 -- -- 77
2017-11-19 04:00:00 16 7 Norte 31 Nordeste 0 -- -- 77
2017-11-19 03:00:00 16.1 11 Norte 36 Nordeste 0 -- -- 77
2017-11-19 02:00:00 16.1 22 Nordeste 32 Nordeste 0 -- -- 77
2017-11-19 01:00:00 16.3 20 Nordeste 35 Este 0 -- -- 75
2017-11-19 00:00:00 16.1 13 Nordeste 31 Este 0 -- -- 76
2017-11-18 23:00:00 16 5 Nordeste 14 Nordeste 0 -- -- 76
2017-11-18 22:00:00 15.7 6 Norte 10 Norte 0 -- -- 76
2017-11-18 21:00:00 16.1 6 Norte 14 Nordeste 0 -- -- 75
2017-11-18 20:00:00 16.4 9 Nordeste 13 Nordeste 0 -- -- 74
2017-11-18 19:00:00 16.6 7 Nordeste 18 Este 0 -- -- 74
2017-11-18 18:00:00 16.9 15 Este 22 Este 0 -- -- 74
2017-11-18 17:00:00 17.1 14 Este 20 Este 0 -- -- 73
2017-11-18 16:00:00 17.4 13 Este 21 Sudeste 0 -- -- 73
2017-11-18 15:00:00 18.2 15 Este 24 Este 0 -- -- 73
2017-11-18 14:00:00 18 15 Este 26 Este 0 -- -- 72
2017-11-18 13:00:00 18.5 19 Este 29 Este 0 -- -- 74
2017-11-18 12:00:00 18.3 22 Este 30 Este 0 -- -- 73
2017-11-18 11:00:00 18.7 16 Este 21 Este 0 -- -- 73
2017-11-18 10:00:00 18.6 0 Calma 5 Este 0 -- -- 77
2017-11-18 09:00:00 16.1 2 Norte 8 Norte 0 -- -- 81
2017-11-18 08:00:00 15.1 7 Norte 11 Norte 0 -- -- 82
2017-11-18 07:00:00 15.1 4 Norte 11 Norte 0 -- -- 82
2017-11-18 06:00:00 15.2 4 Norte 10 Norte 0 -- -- 81
2017-11-18 05:00:00 15.3 6 Norte 9 Norte 0 -- -- 81
2017-11-18 04:00:00 15.3 5 Norte 9 Norte 0 -- -- 80
2017-11-18 03:00:00 15.5 4 Norte 9 Norte 0 -- -- 79
2017-11-18 02:00:00 15.8 5 Nordeste 9 Nordeste 0 -- -- 78
2017-11-18 01:00:00 15.6 4 Norte 10 Norte 0 -- -- 77
2017-11-18 00:00:00 15.6 6 Norte 9 Norte 0 -- -- 76
2017-11-17 23:00:00 15.6 6 Norte 9 Norte 0 -- -- 75
2017-11-17 22:00:00 15.7 7 Norte 12 Norte 0 -- -- 75
2017-11-17 21:00:00 15.7 5 Norte 10 Norte 0 -- -- 75
2017-11-17 20:00:00 16.1 6 Norte 9 Norte 0 -- -- 75
2017-11-17 19:00:00 16.6 5 Nordeste 15 Este 0 -- -- 74
2017-11-17 18:00:00 17 8 Este 14 Este 0 -- -- 73
2017-11-17 17:00:00 17.3 8 Este 19 Este 0 -- -- 72
2017-11-17 16:00:00 17.7 10 Este 18 Este 0 -- -- 70
2017-11-17 15:00:00 18.6 10 Este 18 Este 0 -- -- 69
2017-11-17 14:00:00 18.5 10 Este 18 Este 0 -- -- 66
2017-11-17 13:00:00 19.9 8 Este 16 Este 0 -- -- 65
2017-11-17 12:00:00 19.3 12 Este 20 Este 0 -- -- 66
2017-11-17 11:00:00 19.4 9 Este 14 Este 0 -- -- 66
2017-11-17 10:00:00 18.3 4 Este 10 Nordeste 0 -- -- 72
2017-11-17 09:00:00 15.7 5 Norte 12 Norte 0 -- -- 77
2017-11-17 08:00:00 14.9 7 Norte 16 Nordeste 0 -- -- 76
2017-11-17 07:00:00 15 7 Norte 14 Nordeste 0 -- -- 76
2017-11-17 06:00:00 14.8 9 Norte 14 Norte 0 -- -- 76
2017-11-17 05:00:00 15.1 10 Norte 15 Norte 0 -- -- 76
2017-11-17 04:00:00 14.6 12 Norte 15 Norte 0 -- -- 74
2017-11-17 03:00:00 15.4 5 Norte 9 Nordeste 0 -- -- 74
2017-11-17 02:00:00 15.3 6 Norte 11 Norte 0 -- -- 73
2017-11-17 01:00:00 14.7 9 Norte 15 Norte 0 -- -- 74
2017-11-17 00:00:00 15 12 Norte 17 Norte 0 -- -- 73
2017-11-16 23:00:00 15 12 Norte 15 Norte 0 -- -- 72
2017-11-16 22:00:00 15.2 9 Norte 13 Norte 0 -- -- 72
2017-11-16 21:00:00 15.6 9 Norte 12 Norte 0 -- -- 71
2017-11-16 20:00:00 16.1 3 Norte 10 Este 0 -- -- 70
2017-11-16 19:00:00 16.6 6 Este 11 Este 0 -- -- 69
2017-11-16 18:00:00 17 4 Este 10 Este 0 -- -- 69
2017-11-16 17:00:00 17.4 4 Sudeste 8 Sudeste 0 -- -- 68
2017-11-16 16:00:00 17.9 4 Sudeste 9 Sudeste 0 -- -- 65
2017-11-16 15:00:00 19.6 4 Sur 9 Sudeste 0 -- -- 61
2017-11-16 14:00:00 19.7 3 Sudoeste 8 Oeste 0 -- -- 58
2017-11-16 13:00:00 19.9 3 Sudoeste 12 Oeste 0 -- -- 58
2017-11-16 12:00:00 20.1 7 Oeste 12 Noroeste 0 -- -- 55
2017-11-16 11:00:00 19.4 5 Oeste 12 Noroeste 0 -- -- 61
2017-11-16 10:00:00 18.2 4 Oeste 9 Oeste 0 -- -- 67
2017-11-16 09:00:00 15.8 4 Noroeste 10 Norte 0 -- -- 72
2017-11-16 08:00:00 14.3 8 Norte 12 Norte 0 -- -- 73
2017-11-16 07:00:00 14.1 9 Norte 14 Norte 0 -- -- 73
2017-11-16 06:00:00 14 9 Norte 14 Norte 0 -- -- 72
2017-11-16 05:00:00 14.2 6 Norte 11 Noroeste 0 -- -- 71
2017-11-16 04:00:00 14.5 6 Norte 8 Norte 0 -- -- 70
2017-11-16 03:00:00 14.6 2 Noroeste 8 Norte 0 -- -- 69
2017-11-16 02:00:00 14.8 3 Noroeste 8 Norte 0 -- -- 66
2017-11-16 01:00:00 14.8 5 Norte 8 Norte 0 -- -- 66
2017-11-16 00:00:00 15 5 Norte 9 Norte 0 -- -- 66
2017-11-15 23:00:00 14.9 5 Norte 11 Norte 0 -- -- 66
2017-11-15 22:00:00 15.2 6 Norte 9 Norte 0 -- -- 65
2017-11-15 21:00:00 15.4 3 Norte 7 Norte 0 -- -- 64
2017-11-15 20:00:00 15.9 3 Este 9 Este 0 -- -- 63
2017-11-15 19:00:00 16.2 3 Sudeste 14 Sudeste 0 -- -- 61
2017-11-15 18:00:00 16.6 4 Este 14 Este 0 -- -- 61
2017-11-15 17:00:00 16.9 6 Este 17 Este 0 -- -- 60
2017-11-15 16:00:00 17.5 8 Este 15 Este 0 -- -- 58
2017-11-15 15:00:00 19.1 4 Este 14 Sudeste 0 -- -- 54
2017-11-15 14:00:00 18.7 5 Sudeste 18 Este 0 -- -- 56
2017-11-15 13:00:00 19.7 8 Este 20 Este 0 -- -- 54
2017-11-15 12:00:00 18.5 17 Este 28 Este 0 -- -- 57
2017-11-15 11:00:00 18.6 13 Este 26 Este 0 -- -- 56
2017-11-15 10:00:00 18.4 9 Este 23 Este 0 -- -- 57
2017-11-15 09:00:00 16 6 Norte 12 Norte 0 -- -- 62
2017-11-15 08:00:00 15.1 7 Norte 17 Nordeste 0 -- -- 63
2017-11-15 07:00:00 15.3 8 Norte 14 Norte 0 -- -- 61
2017-11-15 06:00:00 15 10 Norte 19 Norte 0 -- -- 61
2017-11-15 05:00:00 15.1 14 Norte 21 Norte 0 -- -- 60
2017-11-15 04:00:00 14.8 15 Norte 26 Norte 0 -- -- 60
2017-11-15 03:00:00 14.7 16 Norte 25 Norte 0 -- -- 60
2017-11-15 02:00:00 14.4 15 Norte 29 Norte 0 -- -- 61
2017-11-15 01:00:00 14.4 21 Norte 28 Norte 0 -- -- 62
2017-11-15 00:00:00 15.1 9 Norte 21 Norte 0 -- -- 65
2017-11-14 23:00:00 15.4 12 Norte 24 Nordeste 0 -- -- 65
2017-11-14 22:00:00 15.4 17 Nordeste 28 Nordeste 0 -- -- 64
2017-11-14 21:00:00 15.5 20 Nordeste 30 Nordeste 0 -- -- 62
2017-11-14 20:00:00 15.5 18 Nordeste 33 Nordeste 0 -- -- 60
2017-11-14 19:00:00 15.5 19 Nordeste 28 Nordeste 0 -- -- 59
2017-11-14 18:00:00 15.7 19 Nordeste 31 Nordeste 0 -- -- 58
2017-11-14 17:00:00 16 22 Nordeste 35 Este 0 -- -- 54
2017-11-14 16:00:00 16 24 Este 41 Este 0 -- -- 51
2017-11-14 15:00:00 16.4 28 Este 41 Este 0 -- -- 49
2017-11-14 14:00:00 16 30 Este 40 Este 0 -- -- 48
2017-11-14 13:00:00 16.8 23 Este 37 Este 0 -- -- 44
2017-11-14 12:00:00 17.3 19 Este 33 Este 0 -- -- 38
2017-11-14 11:00:00 16.7 13 Nordeste 23 Nordeste 0 -- -- 37
2017-11-14 10:00:00 16.3 11 Este 19 Este 0 -- -- 38
2017-11-14 09:00:00 15.1 2 Norte 8 Este 0 -- -- 37
2017-11-14 08:00:00 14.1 0 Calma 13 Noroeste 0 -- -- 41
2017-11-14 07:00:00 15 10 Norte 29 Nordeste 0 -- -- 36
2017-11-14 06:00:00 14.9 12 Nordeste 35 Este 0 -- -- 36
2017-11-14 05:00:00 15.3 22 Nordeste 40 Nordeste 0 -- -- 40
2017-11-14 04:00:00 15.8 24 Nordeste 36 Nordeste 0 -- -- 41
2017-11-14 03:00:00 16.5 24 Nordeste 40 Nordeste 0 -- -- 42
2017-11-14 02:00:00 16.8 24 Nordeste 42 Nordeste 0 -- -- 42
2017-11-14 01:00:00 17.2 30 Nordeste 47 Nordeste 0 -- -- 41
2017-11-14 00:00:00 17.7 27 Nordeste 51 Este 0 -- -- 42
2017-11-13 23:00:00 17.8 24 Este 41 Este 0 -- -- 59
2017-11-13 22:00:00 18.2 24 Este 46 Este 0 -- -- 59
2017-11-13 21:00:00 18.9 29 Este 45 Este 0 -- -- 62
2017-11-13 20:00:00 19.1 22 Este 38 Nordeste 0 -- -- 50
2017-11-13 19:00:00 19.2 22 Este 35 Este 0 -- -- 51
2017-11-13 18:00:00 19.2 22 Este 36 Este 0 -- -- 50
2017-11-13 17:00:00 19.3 24 Este 36 Este 0 -- -- 63
2017-11-13 16:00:00 18.8 23 Este 30 Este 0 -- -- 61
2017-11-13 15:00:00 21.4 7 Este 15 Sudeste 0 -- -- 61
2017-11-13 14:00:00 21.5 4 Sudoeste 15 Oeste 0 -- -- 58
2017-11-13 13:00:00 22.5 8 Oeste 15 Oeste 0 -- -- 56
2017-11-13 12:00:00 22.1 10 Oeste 16 Oeste 0 -- -- 65
2017-11-13 11:00:00 21.5 4 Oeste 19 Oeste 0 -- -- 60
2017-11-13 10:00:00 21.4 12 Oeste 35 Oeste 0 -- -- 41
2017-11-13 09:00:00 19.4 19 Oeste 38 Oeste 0 -- -- 42
2017-11-13 08:00:00 17 10 Oeste 18 Noroeste 0 -- -- 53
2017-11-13 07:00:00 17.8 11 Oeste 35 Noroeste 0 -- -- 52
2017-11-13 06:00:00 17.3 16 Noroeste 30 Oeste 0 -- -- 51
2017-11-13 05:00:00 18.1 12 Noroeste 22 Norte 0 -- -- 50
2017-11-13 04:00:00 15.8 8 Noroeste 16 Norte 0 -- -- 70
2017-11-13 03:00:00 15.6 10 Noroeste 19 Norte 0 -- -- 83
2017-11-13 02:00:00 16.2 10 Norte 16 Norte 0 -- -- 82
2017-11-13 01:00:00 16.4 0 Calma 10 Noroeste 0 -- -- 82
2017-11-13 00:00:00 16.2 10 Norte 17 Noroeste 0 -- -- 83
2017-11-12 23:00:00 16.5 6 Noroeste 17 Noroeste 0 -- -- 82
2017-11-12 22:00:00 17.2 14 Oeste 24 Oeste 0 -- -- 81
2017-11-12 21:00:00 17.4 12 Oeste 24 Noroeste 0 -- -- 79
2017-11-12 20:00:00 17.5 20 Oeste 33 Oeste 0 -- -- 76
2017-11-12 19:00:00 17.7 21 Oeste 32 Oeste 0 -- -- 75
2017-11-12 18:00:00 17.8 15 Oeste 30 Oeste 0 -- -- 73
2017-11-12 17:00:00 18.4 14 Oeste 29 Sudoeste 0 -- -- 72
2017-11-12 16:00:00 18.8 15 Oeste 30 Sudoeste 0 -- -- 70
2017-11-12 15:00:00 19.9 14 Oeste 26 Oeste 0 -- -- 67
2017-11-12 14:00:00 19.9 14 Oeste 25 Oeste 0 -- -- 66
2017-11-12 13:00:00 21.4 14 Oeste 28 Oeste 0 -- -- 63
2017-11-12 12:00:00 21.2 15 Oeste 26 Oeste 0 -- -- 64
2017-11-12 11:00:00 19.9 16 Oeste 28 Noroeste 0 -- -- 68
2017-11-12 10:00:00 18.6 19 Oeste 32 Oeste 0 -- -- 69
2017-11-12 09:00:00 17.3 20 Oeste 32 Oeste 0 -- -- 71
2017-11-12 08:00:00 16.1 21 Oeste 36 Noroeste 0 -- -- 73
2017-11-12 07:00:00 15.8 19 Noroeste 33 Noroeste 0 -- -- 73
2017-11-12 06:00:00 16 21 Oeste 32 Oeste 0 -- -- 73
2017-11-12 05:00:00 15.9 20 Noroeste 31 Noroeste 0 -- -- 73
2017-11-12 04:00:00 15.9 20 Noroeste 35 Noroeste 0 -- -- 74
2017-11-12 03:00:00 16 18 Noroeste 36 Noroeste 0 -- -- 74
2017-11-12 02:00:00 16.1 20 Oeste 33 Oeste 0 -- -- 74
2017-11-12 01:00:00 16.3 21 Noroeste 28 Oeste 0 -- -- 74
2017-11-12 00:00:00 16.1 13 Noroeste 21 Noroeste 0 -- -- 73
2017-11-11 23:00:00 16.1 10 Noroeste 20 Noroeste 0 -- -- 72
2017-11-11 22:00:00 16.9 13 Oeste 18 Oeste 0 -- -- 72
2017-11-11 21:00:00 17 12 Oeste 17 Oeste 0 -- -- 71
2017-11-11 20:00:00 17.1 10 Oeste 19 Oeste 0 -- -- 70
2017-11-11 19:00:00 17.3 8 Oeste 16 Sudoeste 0 -- -- 69
2017-11-11 18:00:00 17.7 7 Oeste 16 Oeste 0 -- -- 68
2017-11-11 17:00:00 18 9 Oeste 20 Oeste 0 -- -- 66
2017-11-11 16:00:00 18.5 6 Oeste 18 Sudoeste 0 -- -- 64
2017-11-11 15:00:00 20 6 Oeste 21 Sudoeste 0 -- -- 61
2017-11-11 14:00:00 20.2 8 Oeste 19 Sudoeste 0 -- -- 58
2017-11-11 13:00:00 21.6 6 Oeste 20 Oeste 0 -- -- 56
2017-11-11 12:00:00 20.9 12 Oeste 22 Oeste 0 -- -- 51
2017-11-11 11:00:00 19.9 13 Oeste 28 Oeste 0 -- -- 56
2017-11-11 10:00:00 17.6 16 Oeste 30 Noroeste 0 -- -- 58
2017-11-11 09:00:00 16.8 19 Oeste 32 Noroeste 0 -- -- 62
2017-11-11 08:00:00 16 21 Oeste 31 Noroeste 0 -- -- 65
2017-11-11 07:00:00 15.6 21 Noroeste 33 Noroeste 0 -- -- 69
2017-11-11 06:00:00 16 23 Oeste 33 Noroeste 0 -- -- 70
2017-11-11 05:00:00 15.9 24 Oeste 36 Oeste 0 -- -- 70
2017-11-11 04:00:00 16 30 Oeste 44 Oeste 0 -- -- 70
2017-11-11 03:00:00 16.1 25 Oeste 41 Oeste 0 -- -- 70
2017-11-11 02:00:00 16.1 29 Oeste 41 Oeste 0 -- -- 69
2017-11-11 01:00:00 16.3 30 Oeste 41 Noroeste 0 -- -- 68
2017-11-11 00:00:00 16.3 26 Oeste 40 Noroeste 0 -- -- 67
2017-11-10 23:00:00 16.4 26 Oeste 35 Oeste 0 -- -- 65
2017-11-10 22:00:00 16.5 19 Oeste 32 Oeste 0 -- -- 62
2017-11-10 21:00:00 16.6 12 Oeste 26 Oeste 0 -- -- 61
2017-11-10 20:00:00 16.6 4 Oeste 14 Sudoeste 0 -- -- 55
2017-11-10 19:00:00 16.6 4 Oeste 11 Oeste 0 -- -- 50
2017-11-10 18:00:00 16.7 4 Sudeste 11 Este 0 -- -- 47
2017-11-10 17:00:00 17 4 Este 16 Este 0 -- -- 48
2017-11-10 16:00:00 17 12 Este 33 Este 0 -- -- 47
2017-11-10 15:00:00 17.5 28 Este 48 Este 0 -- -- 44
2017-11-10 14:00:00 17.6 33 Este 51 Este 0 -- -- 39
2017-11-10 13:00:00 19.1 17 Nordeste 30 Norte 0 -- -- 29
2017-11-10 12:00:00 18.4 13 Norte 36 Norte 0 -- -- 30
2017-11-10 11:00:00 18.4 8 Norte 18 Norte 0 -- -- 31
2017-11-10 10:00:00 17.3 4 Noroeste 17 Este 0 -- -- 37
2017-11-10 09:00:00 15 11 Norte 42 Norte 0 -- -- 36
2017-11-10 08:00:00 14.8 23 Norte 45 Norte 0 -- -- 36
2017-11-10 07:00:00 14.4 20 Noroeste 31 Norte 0 -- -- 39
2017-11-10 06:00:00 13.4 13 Norte 21 Noroeste 0 -- -- 41
2017-11-10 05:00:00 14.4 13 Noroeste 26 Norte 0 -- -- 38
2017-11-10 04:00:00 14.8 10 Norte 17 Norte 0 -- -- 39
2017-11-10 03:00:00 14.6 10 Norte 15 Norte 0 -- -- 39
2017-11-10 02:00:00 14.8 9 Norte 15 Norte 0 -- -- 39
2017-11-10 01:00:00 14.7 12 Norte 17 Norte 0 -- -- 43
2017-11-10 00:00:00 15 14 Norte 20 Norte 0 -- -- 44
2017-11-09 23:00:00 15 13 Norte 20 Norte 0 -- -- 46
2017-11-09 22:00:00 14.8 11 Norte 19 Norte 0 -- -- 49
2017-11-09 21:00:00 14.9 10 Norte 13 Norte 0 -- -- 51
2017-11-09 20:00:00 15.8 6 Norte 19 Nordeste 0 -- -- 50
2017-11-09 19:00:00 16.3 15 Este 33 Este 0 -- -- 51
2017-11-09 18:00:00 16.5 21 Este 48 Este 0 -- -- 56
2017-11-09 17:00:00 16.4 32 Este 62 Este 0 -- -- 56
2017-11-09 16:00:00 16.7 41 Este 63 Este 0 -- -- 48
2017-11-09 15:00:00 17.4 37 Este 60 Este 0 -- -- 41
2017-11-09 14:00:00 17.8 35 Nordeste 57 Este 0 -- -- 33
2017-11-09 13:00:00 18.6 40 Este 67 Sudeste 0 -- -- 34
2017-11-09 12:00:00 19.9 23 Nordeste 40 Norte 0 -- -- 32
2017-11-09 11:00:00 19.3 12 Nordeste 38 Nordeste 0 -- -- 34
2017-11-09 10:00:00 17.7 24 Este 42 Este 0 -- -- 38
2017-11-09 09:00:00 17.3 12 Nordeste 35 Nordeste 0 -- -- 36
2017-11-09 08:00:00 16.3 23 Nordeste 36 Norte 0 -- -- 37
2017-11-09 07:00:00 16.4 15 Norte 53 Noroeste 0 -- -- 40
2017-11-09 06:00:00 16.7 14 Norte 32 Norte 0 -- -- 42
2017-11-09 05:00:00 16.2 6 Norte 16 Norte 0 -- -- 48
2017-11-09 04:00:00 15.4 6 Norte 13 Norte 0 -- -- 65
2017-11-09 03:00:00 15.5 6 Norte 12 Norte 0 -- -- 69
2017-11-09 02:00:00 15.6 8 Norte 17 Norte 0 -- -- 75
2017-11-09 01:00:00 15.7 10 Noroeste 17 Noroeste 0 -- -- 76
2017-11-09 00:00:00 16.1 10 Norte 16 Norte 0 -- -- 74
2017-11-08 23:00:00 16.2 6 Noroeste 12 Noroeste 0 -- -- 73
2017-11-08 22:00:00 16.1 7 Norte 12 Noroeste 0 -- -- 72
2017-11-08 21:00:00 16.7 8 Noroeste 15 Noroeste 0 -- -- 72
2017-11-08 20:00:00 17.3 10 Oeste 18 Oeste 0 -- -- 72
2017-11-08 19:00:00 17.7 12 Oeste 18 Noroeste 0 -- -- 71
2017-11-08 18:00:00 18.2 13 Oeste 20 Oeste 0 -- -- 70
2017-11-08 17:00:00 18.9 7 Oeste 15 Sudoeste 0 -- -- 68
2017-11-08 16:00:00 19.4 6 Oeste 17 Oeste 0 -- -- 63
2017-11-08 15:00:00 20.9 5 Oeste 15 Sudoeste 0 -- -- 60
2017-11-08 14:00:00 20.9 8 Oeste 17 Oeste 0 -- -- 60
2017-11-08 13:00:00 22.5 8 Oeste 19 Oeste 0 -- -- 56
2017-11-08 12:00:00 21.3 10 Oeste 16 Noroeste 0 -- -- 46
2017-11-08 11:00:00 19.9 7 Oeste 17 Noroeste 0 -- -- 53
2017-11-08 10:00:00 19.8 4 Este 10 Noroeste 0 -- -- 51
2017-11-08 09:00:00 15.6 4 Noroeste 12 Noroeste 0 -- -- 55
2017-11-08 08:00:00 15.1 4 Noroeste 18 Norte 0 -- -- 58
2017-11-08 07:00:00 15.2 13 Norte 21 Norte 0 -- -- 68
2017-11-08 06:00:00 15.4 13 Norte 19 Norte 0 -- -- 71
2017-11-08 05:00:00 15.3 16 Norte 23 Norte 0 -- -- 71
2017-11-08 04:00:00 15.5 7 Noroeste 14 Noroeste 0 -- -- 72
2017-11-08 03:00:00 15.5 8 Norte 13 Noroeste 0 -- -- 72
2017-11-08 02:00:00 15.9 8 Norte 14 Norte 0 -- -- 71
2017-11-08 01:00:00 16 8 Norte 13 Noroeste 0 -- -- 71
2017-11-08 00:00:00 16.2 6 Noroeste 17 Norte 0 -- -- 70
2017-11-07 23:00:00 16.1 7 Noroeste 13 Noroeste 0 -- -- 70
2017-11-07 22:00:00 16.6 5 Noroeste 12 Sudoeste 0 -- -- 67
2017-11-07 21:00:00 17.6 4 Sudoeste 13 Oeste 0 -- -- 67
2017-11-07 20:00:00 17.7 5 Oeste 14 Oeste 0 -- -- 65
2017-11-07 19:00:00 17.9 4 Sur 10 Sudoeste 0 -- -- 64
2017-11-07 18:00:00 18.3 5 Sur 12 Sur 0 -- -- 62
2017-11-07 17:00:00 18.6 5 Sur 12 Sudeste 0 -- -- 61
2017-11-07 16:00:00 19 6 Sur 12 Sur 0 -- -- 59
2017-11-07 15:00:00 20.4 5 Sur 11 Sur 0 -- -- 52
2017-11-07 14:00:00 19.8 5 Sur 10 Sur 0 -- -- 50
2017-11-07 13:00:00 22.2 3 Sudoeste 8 Sur 0 -- -- 45
2017-11-07 12:00:00 22 2 Sudoeste 6 Oeste 0 -- -- 46
2017-11-07 11:00:00 21 4 Sudoeste 10 Oeste 0 -- -- 45
2017-11-07 10:00:00 19.9 6 Oeste 10 Oeste 0 -- -- 47
2017-11-07 09:00:00 17.2 5 Noroeste 9 Noroeste 0 -- -- 52
2017-11-07 08:00:00 15.2 7 Noroeste 12 Norte 0 -- -- 57
2017-11-07 07:00:00 15.6 6 Norte 13 Norte 0 -- -- 55
2017-11-07 06:00:00 15.6 10 Norte 14 Norte 0 -- -- 53
2017-11-07 05:00:00 15.8 7 Norte 14 Norte 0 -- -- 54
2017-11-07 04:00:00 15.4 11 Norte 15 Norte 0 -- -- 55
2017-11-07 03:00:00 15.7 8 Norte 11 Norte 0 -- -- 55
2017-11-07 02:00:00 15.9 7 Norte 14 Oeste 0 -- -- 49
2017-11-07 01:00:00 15.6 6 Noroeste 13 Noroeste 0 -- -- 52
2017-11-07 00:00:00 16.3 11 Nordeste 15 Norte 0 -- -- 53
2017-11-06 23:00:00 16.5 6 Norte 13 Norte 0 -- -- 52
2017-11-06 22:00:00 16.8 8 Nordeste 12 Nordeste 0 -- -- 51
2017-11-06 21:00:00 17.1 9 Nordeste 12 Nordeste 0 -- -- 51
2017-11-06 20:00:00 17.3 7 Este 19 Este 0 -- -- 51
2017-11-06 19:00:00 17.7 12 Este 22 Este 0 -- -- 50
2017-11-06 18:00:00 17.9 14 Este 28 Este 0 -- -- 50
2017-11-06 17:00:00 18.1 22 Este 30 Este 0 -- -- 50
2017-11-06 16:00:00 18.3 21 Este 36 Este 0 -- -- 47
2017-11-06 15:00:00 19.1 26 Este 40 Este 0 -- -- 44
2017-11-06 14:00:00 18.8 32 Este 40 Este 0 -- -- 46
2017-11-06 13:00:00 19.8 31 Este 41 Este 0 -- -- 42
2017-11-06 12:00:00 19.8 33 Este 44 Este 0 -- -- 41
2017-11-06 11:00:00 20.8 20 Este 28 Este 0 -- -- 41
2017-11-06 10:00:00 21.2 3 Sudeste 19 Este 0 -- -- 39
2017-11-06 09:00:00 18.5 8 Noroeste 18 Norte 0 -- -- 40
2017-11-06 08:00:00 17.5 12 Norte 26 Norte 0 -- -- 42
2017-11-06 07:00:00 17.8 15 Norte 26 Norte 0 -- -- 42
2017-11-06 06:00:00 18.1 16 Norte 26 Norte 0 -- -- 43
2017-11-06 05:00:00 18.3 9 Norte 24 Norte 0 -- -- 46
2017-11-06 04:00:00 18.8 12 Nordeste 33 Nordeste 0 -- -- 47
2017-11-06 03:00:00 19.2 7 Norte 32 Este 0 -- -- 46
2017-11-06 02:00:00 19.8 14 Nordeste 23 Nordeste 0 -- -- 45
2017-11-06 01:00:00 19.9 14 Nordeste 23 Nordeste 0 -- -- 45
2017-11-06 00:00:00 20.8 15 Norte 25 Norte 0 -- -- 44
2017-11-05 23:00:00 18.9 8 Este 13 Este 0 -- -- 63
2017-11-05 22:00:00 18.9 3 Este 13 Norte 0 -- -- 71
2017-11-05 21:00:00 18.6 5 Norte 14 Noroeste 0 -- -- 78
2017-11-05 20:00:00 18.4 9 Noroeste 14 Noroeste 0 -- -- 78
2017-11-05 19:00:00 19.8 6 Oeste 14 Oeste 0 -- -- 76
2017-11-05 18:00:00 20.1 6 Oeste 12 Sudoeste 0 -- -- 75
2017-11-05 17:00:00 20.6 4 Oeste 14 Oeste 0 -- -- 74
2017-11-05 16:00:00 21.4 7 Oeste 18 Sudoeste 0 -- -- 70
2017-11-05 15:00:00 22.6 8 Oeste 17 Sudoeste 0 -- -- 68
2017-11-05 14:00:00 22.1 8 Sudoeste 18 Sudoeste 0 -- -- 68
2017-11-05 13:00:00 24 8 Oeste 18 Sudoeste 0 -- -- 63
2017-11-05 12:00:00 23.1 10 Oeste 21 Oeste 0 -- -- 64
2017-11-05 11:00:00 22.1 11 Oeste 21 Noroeste 0 -- -- 69
2017-11-05 10:00:00 21.7 6 Oeste 11 Sudoeste 0 -- -- 74
2017-11-05 09:00:00 19.1 3 Norte 15 Oeste 0 -- -- 78
2017-11-05 08:00:00 18.7 5 Oeste 14 Sudoeste 0 -- -- 78
2017-11-05 07:00:00 18.7 8 Oeste 24 Oeste 0 -- -- 78
2017-11-05 06:00:00 18.7 12 Oeste 27 Sudoeste 0 -- -- 80
2017-11-05 05:00:00 18.8 12 Oeste 35 Oeste 0 -- -- 79
2017-11-05 04:00:00 18.6 30 Oeste 43 Sudoeste 0 -- -- 80
2017-11-05 03:00:00 19 20 Oeste 35 Sudoeste 0 -- -- 82
2017-11-05 02:00:00 18.9 20 Oeste 46 Oeste 0 -- -- 82
2017-11-05 01:00:00 19.2 32 Oeste 53 Oeste 0 -- -- 82
2017-11-05 00:00:00 19.2 35 Oeste 56 Oeste 0 -- -- 83
2017-11-04 23:00:00 19.4 31 Oeste 42 Oeste 0 -- -- 82
2017-11-04 22:00:00 19.4 24 Oeste 45 Sudoeste 0 -- -- 82
2017-11-04 21:00:00 19.5 30 Oeste 48 Sudoeste 0 -- -- 82
2017-11-04 20:00:00 19.5 29 Oeste 47 Oeste 0 -- -- 83
2017-11-04 19:00:00 19.3 26 Oeste 50 Sudoeste 0 -- -- 82
2017-11-04 18:00:00 19.4 25 Oeste 54 Oeste 0 -- -- 81
2017-11-04 17:00:00 19.7 26 Oeste 51 Sudoeste 0 -- -- 78
2017-11-04 16:00:00 19.5 31 Oeste 50 Oeste 0 -- -- 78
2017-11-04 15:00:00 20.2 22 Oeste 36 Sudoeste 0 -- -- 81
2017-11-04 14:00:00 19.9 8 Sudoeste 24 Sudoeste 0 -- -- 83
2017-11-04 13:00:00 18.9 14 Oeste 43 Oeste 0.2 -- -- 82
2017-11-04 12:00:00 18.9 27 Oeste 51 Oeste 0 -- -- 79
2017-11-04 11:00:00 20 21 Oeste 37 Sudoeste 0 -- -- 76
2017-11-04 10:00:00 20.3 17 Oeste 34 Oeste 0 -- -- 79
2017-11-04 09:00:00 20.4 10 Sur 27 Oeste 0 -- -- 83
2017-11-04 08:00:00 19.5 10 Oeste 29 Sudoeste 0 -- -- 84
2017-11-04 07:00:00 19.6 9 Sudoeste 27 Oeste 0 -- -- 83
2017-11-04 06:00:00 19.7 9 Sudoeste 27 Oeste 0 -- -- 83
2017-11-04 05:00:00 19.6 9 Sur 22 Oeste 0 -- -- 86
2017-11-04 04:00:00 19.6 9 Sur 22 Sudoeste 0 -- -- 87
2017-11-04 03:00:00 19.3 12 Oeste 38 Oeste 0 -- -- 86
2017-11-04 02:00:00 19.5 19 Oeste 32 Oeste 0 -- -- 85
2017-11-04 01:00:00 19.7 22 Oeste 34 Oeste 0 -- -- 84
2017-11-04 00:00:00 19.7 15 Oeste 26 Oeste 0 -- -- 84
2017-11-03 23:00:00 19.8 8 Oeste 21 Oeste 0 -- -- 83
2017-11-03 22:00:00 20.2 7 Sudeste 15 Sudoeste 0 -- -- 82
2017-11-03 21:00:00 20 3 Sudoeste 16 Noroeste 0 -- -- 81
2017-11-03 20:00:00 20 6 Norte 12 Este 0 -- -- 81
2017-11-03 19:00:00 20.6 6 Oeste 18 Noroeste 0 -- -- 80
2017-11-03 18:00:00 20.8 3 Este 13 Este 0 -- -- 78
2017-11-03 17:00:00 20.9 7 Este 20 Este 0 -- -- 78
2017-11-03 16:00:00 21 16 Este 25 Este 0 -- -- 78
2017-11-03 15:00:00 21.2 12 Este 23 Este 0 -- -- 76
2017-11-03 14:00:00 22 7 Este 19 Nordeste 0 -- -- 72
2017-11-03 13:00:00 22 8 Oeste 15 Noroeste 0 -- -- 71
2017-11-03 12:00:00 22 12 Oeste 18 Oeste 0 -- -- 71
2017-11-03 11:00:00 21.7 9 Este 23 Este 0 -- -- 72
2017-11-03 10:00:00 22 6 Este 24 Nordeste 0 -- -- 73
2017-11-03 09:00:00 20 5 Norte 12 Este 0 -- -- 76
2017-11-03 08:00:00 19.4 5 Noroeste 22 Nordeste 0 -- -- 74
2017-11-03 07:00:00 19.4 13 Nordeste 23 Nordeste 0 -- -- 74
2017-11-03 06:00:00 18.9 4 Norte 18 Nordeste 0 -- -- 76
2017-11-03 05:00:00 18.9 5 Oeste 17 Nordeste 0 -- -- 78
2017-11-03 04:00:00 19.1 3 Oeste 13 Nordeste 0 -- -- 80
2017-11-03 03:00:00 19.2 4 Norte 8 Nordeste 0 -- -- 79
2017-11-03 02:00:00 19.2 4 Noroeste 10 Norte 0 -- -- 78
2017-11-03 01:00:00 19.5 4 Noroeste 12 Noroeste 0 -- -- 77
2017-11-03 00:00:00 19.9 4 Noroeste 19 Nordeste 0 -- -- 76
2017-11-02 23:00:00 20.1 12 Nordeste 27 Nordeste 0 -- -- 75
2017-11-02 22:00:00 20.3 17 Nordeste 35 Nordeste 0 -- -- 75
2017-11-02 21:00:00 20.3 24 Nordeste 40 Nordeste 0 -- -- 75
2017-11-02 20:00:00 20.4 25 Nordeste 37 Nordeste 0 -- -- 75
2017-11-02 19:00:00 20.4 19 Nordeste 38 Nordeste 0 -- -- 74
2017-11-02 18:00:00 20.7 25 Nordeste 39 Nordeste 0 -- -- 73
2017-11-02 17:00:00 21.2 27 Nordeste 39 Este 0 -- -- 72
2017-11-02 16:00:00 21.6 27 Este 44 Este 0 -- -- 69
2017-11-02 15:00:00 22.3 24 Este 46 Este 0 -- -- 67
2017-11-02 14:00:00 22.1 28 Este 46 Este 0 -- -- 65
2017-11-02 13:00:00 23.1 26 Nordeste 44 Nordeste 0 -- -- 61
2017-11-02 12:00:00 23.1 20 Este 37 Este 0 -- -- 63
2017-11-02 11:00:00 22.7 15 Este 38 Este 0 -- -- 64
2017-11-02 10:00:00 22.3 3 Noroeste 25 Este 0 -- -- 68
2017-11-02 09:00:00 20 6 Noroeste 17 Noroeste 0 -- -- 74
2017-11-02 08:00:00 18.8 7 Noroeste 19 Noroeste 0 -- -- 75
2017-11-02 07:00:00 18.8 10 Noroeste 24 Nordeste 0 -- -- 75
2017-11-02 06:00:00 19 12 Noroeste 26 Norte 0 -- -- 75
2017-11-02 05:00:00 18.6 12 Norte 23 Norte 0 -- -- 76
2017-11-02 04:00:00 18.9 9 Norte 22 Norte 0 -- -- 76
2017-11-02 03:00:00 19.4 9 Norte 23 Nordeste 0 -- -- 75
2017-11-02 02:00:00 19.9 14 Norte 34 Nordeste 0 -- -- 76
2017-11-02 01:00:00 19.9 9 Norte 30 Nordeste 0 -- -- 75
2017-11-02 00:00:00 20.1 10 Nordeste 26 Nordeste 0 -- -- 75
2017-11-01 23:00:00 20.3 12 Nordeste 32 Nordeste 0 -- -- 74
2017-11-01 22:00:00 20.3 13 Nordeste 36 Nordeste 0 -- -- 75
2017-11-01 21:00:00 20.4 18 Nordeste 35 Nordeste 0 -- -- 75
2017-11-01 20:00:00 20.5 21 Nordeste 46 Este 0 -- -- 75
2017-11-01 19:00:00 20.7 31 Nordeste 54 Este 0 -- -- 74
2017-11-01 18:00:00 21 41 Nordeste 58 Nordeste 0 -- -- 74
2017-11-01 17:00:00 21.4 32 Este 50 Nordeste 0 -- -- 72
2017-11-01 16:00:00 21.8 30 Este 51 Este 0 -- -- 70
2017-11-01 15:00:00 22.2 29 Este 50 Este 0 -- -- 70
2017-11-01 14:00:00 22 30 Este 48 Este 0 -- -- 69
2017-11-01 13:00:00 22.8 21 Este 43 Este 0 -- -- 67
2017-11-01 12:00:00 22.8 29 Este 47 Este 0 -- -- 68
2017-11-01 11:00:00 22.7 23 Este 40 Este 0 -- -- 68
2017-11-01 10:00:00 22.3 19 Nordeste 31 Este 0 -- -- 69
2017-11-01 09:00:00 20.3 8 Norte 22 Nordeste 0 -- -- 74
2017-11-01 08:00:00 19.1 12 Norte 28 Norte 0 -- -- 74
2017-11-01 07:00:00 18.7 13 Norte 25 Norte 0 -- -- 74
2017-11-01 06:00:00 18.6 14 Norte 23 Noroeste 0 -- -- 74
2017-11-01 05:00:00 18.7 12 Norte 21 Noroeste 0 -- -- 75
2017-11-01 04:00:00 19.1 11 Norte 22 Norte 0 -- -- 75
2017-11-01 03:00:00 19.2 14 Norte 26 Norte 0 -- -- 74
2017-11-01 02:00:00 19.3 13 Norte 20 Norte 0 -- -- 75
2017-11-01 01:00:00 19.8 9 Norte 22 Nordeste 0 -- -- 75
2017-11-01 00:00:00 20 10 Norte 30 Nordeste 0 -- -- 75
2017-10-31 23:00:00 20.2 11 Norte 22 Nordeste 0 -- -- 75
2017-10-31 22:00:00 20.1 10 Nordeste 20 Nordeste 0 -- -- 75
2017-10-31 21:00:00 20.4 13 Nordeste 35 Este 0 -- -- 74
2017-10-31 20:00:00 20.6 22 Nordeste 44 Este 0 -- -- 74
2017-10-31 19:00:00 20.8 27 Nordeste 41 Nordeste 0 -- -- 74
2017-10-31 18:00:00 21.1 28 Nordeste 46 Nordeste 0 -- -- 72
2017-10-31 17:00:00 21.5 26 Este 53 Nordeste 0 -- -- 70
2017-10-31 16:00:00 21.7 30 Este 54 Este 0 -- -- 67
2017-10-31 15:00:00 22.6 31 Este 48 Este 0 -- -- 64
2017-10-31 14:00:00 22.1 34 Este 49 Este 0 -- -- 64
2017-10-31 13:00:00 22.8 29 Este 45 Este 0 -- -- 61
2017-10-31 12:00:00 23.2 20 Este 39 Este 0 -- -- 60
2017-10-31 11:00:00 23 19 Nordeste 37 Nordeste 0 -- -- 62
2017-10-31 10:00:00 22.1 16 Nordeste 36 Nordeste 0 -- -- 65
2017-10-31 09:00:00 21 18 Nordeste 31 Nordeste 0 -- -- 70
2017-10-31 08:00:00 19.3 15 Norte 25 Norte 0 -- -- 74
2017-10-31 07:00:00 19.4 15 Norte 24 Nordeste 0 -- -- 75
2017-10-31 06:00:00 19.5 11 Nordeste 20 Nordeste 0 -- -- 74
2017-10-31 05:00:00 19.5 9 Norte 18 Norte 0 -- -- 76
2017-10-31 04:00:00 19.3 9 Norte 17 Norte 0 -- -- 77
2017-10-31 03:00:00 19.8 9 Norte 18 Nordeste 0 -- -- 77
2017-10-31 02:00:00 19.9 7 Norte 18 Norte 0 -- -- 77
2017-10-31 01:00:00 19.7 6 Norte 10 Norte 0 -- -- 77
2017-10-31 00:00:00 20 6 Norte 17 Este 0 -- -- 76
2017-10-30 23:00:00 20.1 10 Nordeste 20 Nordeste 0 -- -- 76
2017-10-30 22:00:00 19.9 4 Norte 17 Nordeste 0 -- -- 75
2017-10-30 21:00:00 20.1 9 Nordeste 20 Nordeste 0 -- -- 75
2017-10-30 20:00:00 20.1 11 Nordeste 22 Este 0 -- -- 75
2017-10-30 19:00:00 20.3 11 Nordeste 23 Este 0 -- -- 75
2017-10-30 18:00:00 20.6 18 Este 23 Este 0 -- -- 74
2017-10-30 17:00:00 20.6 17 Este 22 Este 0 -- -- 73
2017-10-30 16:00:00 21.2 11 Este 21 Este 0 -- -- 72
2017-10-30 15:00:00 22.7 9 Este 17 Este 0 -- -- 70
2017-10-30 14:00:00 22.6 7 Este 14 Este 0 -- -- 70
2017-10-30 13:00:00 24.2 5 Este 13 Este 0 -- -- 69
2017-10-30 12:00:00 24.2 4 Este 11 Este 0 -- -- 68
2017-10-30 11:00:00 23.5 8 Este 13 Este 0 -- -- 70
2017-10-30 10:00:00 22.5 4 Sudeste 9 Este 0 -- -- 74
2017-10-30 09:00:00 20.7 0 Calma 7 Norte 0 -- -- 77
2017-10-30 08:00:00 19.3 4 Nordeste 8 Norte 0 -- -- 78
2017-10-30 07:00:00 19.1 5 Nordeste 9 Nordeste 0 -- -- 76
2017-10-30 06:00:00 19.2 5 Nordeste 8 Norte 0 -- -- 75
2017-10-30 05:00:00 19.4 5 Nordeste 9 Nordeste 0 -- -- 74
2017-10-30 04:00:00 19.2 4 Norte 9 Norte 0 -- -- 73
2017-10-30 03:00:00 19.4 7 Nordeste 8 Este 0 -- -- 73
2017-10-30 02:00:00 19 5 Norte 10 Norte 0 -- -- 73
2017-10-30 01:00:00 19.3 8 Norte 10 Norte 0 -- -- 73
2017-10-30 00:00:00 19.4 6 Norte 10 Norte 0 -- -- 72
2017-10-29 23:00:00 19.9 4 Norte 9 Nordeste 0 -- -- 71
2017-10-29 22:00:00 20.1 3 Norte 15 Este 0 -- -- 70
2017-10-29 21:00:00 20.5 10 Nordeste 24 Nordeste 0 -- -- 70
2017-10-29 20:00:00 20.5 15 Nordeste 30 Este 0 -- -- 70
2017-10-29 19:00:00 20.8 23 Nordeste 31 Nordeste 0 -- -- 68
2017-10-29 18:00:00 21.4 24 Nordeste 38 Nordeste 0 -- -- 62
2017-10-29 17:00:00 21.8 23 Este 41 Sudeste 0 -- -- 59
2017-10-29 16:00:00 21.7 30 Este 43 Este 0 -- -- 63
2017-10-29 15:00:00 22.5 31 Este 42 Este 0 -- -- 65
2017-10-29 14:00:00 22.3 26 Este 43 Este 0 -- -- 66
2017-10-29 13:00:00 22.7 28 Este 44 Este 0 -- -- 69
2017-10-29 12:00:00 23 26 Este 41 Este 0 -- -- 66
2017-10-29 11:00:00 23.3 18 Este 26 Este 0 -- -- 64
2017-10-29 10:00:00 22.9 16 Este 26 Este 0 -- -- 67
2017-10-29 09:00:00 21.7 2 Oeste 14 Noroeste 0 -- -- 75
2017-10-29 08:00:00 19.6 8 Norte 15 Norte 0 -- -- 81
2017-10-29 07:00:00 19.4 9 Norte 15 Norte 0 -- -- 82
2017-10-29 06:00:00 19.6 6 Norte 13 Nordeste 0 -- -- 82
2017-10-29 05:00:00 19.9 7 Norte 15 Nordeste 0 -- -- 81
2017-10-29 04:00:00 20.1 6 Norte 15 Nordeste 0 -- -- 80
2017-10-29 03:00:00 20 4 Norte 11 Norte 0 -- -- 80
2017-10-29 02:00:00 20.1 5 Norte 15 Noroeste 0 -- -- 79
2017-10-29 01:00:00 20.7 4 Norte 19 Nordeste 0 -- -- 78
2017-10-29 00:00:00 20.9 11 Nordeste 26 Nordeste 0 -- -- 77
2017-10-28 23:00:00 21 13 Nordeste 33 Nordeste 0 -- -- 77
2017-10-28 22:00:00 21.1 15 Nordeste 32 Nordeste 0 -- -- 76
2017-10-28 21:00:00 21.2 19 Nordeste 39 Este 0 -- -- 75
2017-10-28 20:00:00 21.4 30 Nordeste 46 Este 0 -- -- 74
2017-10-28 19:00:00 21.7 33 Nordeste 52 Nordeste 0 -- -- 72
2017-10-28 18:00:00 22.3 32 Nordeste 46 Nordeste 0 -- -- 66
2017-10-28 17:00:00 22.3 22 Nordeste 47 Este 0 -- -- 71
2017-10-28 16:00:00 22.7 32 Este 51 Este 0 -- -- 70
2017-10-28 15:00:00 22.3 37 Este 49 Este 0 -- -- 69
2017-10-28 14:00:00 23.3 30 Este 49 Este 0 -- -- 66
2017-10-28 13:00:00 23.3 24 Nordeste 61 Nordeste 0 -- -- 65
2017-10-28 12:00:00 23.4 21 Nordeste 43 Este 0 -- -- 69
2017-10-28 11:00:00 22.3 16 Nordeste 33 Nordeste 0 -- -- 74
2017-10-28 10:00:00 20.3 17 Nordeste 34 Este 0 -- -- 82
2017-10-28 09:00:00 20.2 19 Este 39 Nordeste 0 -- -- 82
2017-10-28 08:00:00 20.3 11 Nordeste 29 Nordeste 0 -- -- 79
2017-10-28 07:00:00 19.1 3 Este 9 Norte 0 -- -- 71
2017-10-28 06:00:00 18.3 4 Norte 22 Noroeste 0 -- -- 71
2017-10-28 05:00:00 19.3 17 Noroeste 33 Noroeste 0 -- -- 75
2017-10-28 04:00:00 19.1 17 Noroeste 28 Noroeste 0 -- -- 80
2017-10-28 03:00:00 19.2 17 Noroeste 26 Noroeste 0 -- -- 83
2017-10-28 02:00:00 19.1 15 Noroeste 28 Noroeste 0 -- -- 83
2017-10-28 01:00:00 19.5 20 Noroeste 31 Noroeste 0 -- -- 85
2017-10-28 00:00:00 19.8 20 Oeste 29 Noroeste 0 -- -- 85
2017-10-27 23:00:00 19.7 13 Noroeste 27 Noroeste 0 -- -- 85
2017-10-27 22:00:00 20.1 16 Oeste 26 Oeste 0 -- -- 86
2017-10-27 21:00:00 20.6 15 Oeste 23 Noroeste 0 -- -- 85
2017-10-27 20:00:00 21 11 Oeste 15 Noroeste 0 -- -- 83
2017-10-27 19:00:00 21.5 2 Oeste 8 Sudeste 0 -- -- 81
2017-10-27 18:00:00 21.6 5 Sudeste 19 Este 0 -- -- 81
2017-10-27 17:00:00 21.8 14 Este 30 Este 0 -- -- 79
2017-10-27 16:00:00 22 26 Este 35 Este 0 -- -- 77
2017-10-27 15:00:00 21.8 29 Este 38 Este 0 -- -- 74
2017-10-27 14:00:00 22.7 29 Este 38 Este 0 -- -- 71
2017-10-27 13:00:00 22.6 31 Este 41 Este 0 -- -- 68
2017-10-27 12:00:00 22.6 27 Este 35 Este 0 -- -- 68
2017-10-27 11:00:00 23.3 15 Este 24 Este 0 -- -- 65
2017-10-27 10:00:00 22.8 3 Oeste 17 Este 0 -- -- 58
2017-10-27 09:00:00 21.3 9 Este 19 Este 0 -- -- 59
2017-10-27 08:00:00 20.9 3 Este 18 Sudeste 0 -- -- 54
2017-10-27 07:00:00 21.4 11 Nordeste 30 Nordeste 0 -- -- 50
2017-10-27 06:00:00 21.2 18 Nordeste 33 Nordeste 0 -- -- 53
2017-10-27 05:00:00 20.8 10 Nordeste 21 Nordeste 0 -- -- 56
2017-10-27 04:00:00 20.8 9 Nordeste 23 Nordeste 0 -- -- 61
2017-10-27 03:00:00 20.6 12 Nordeste 25 Nordeste 0 -- -- 70
2017-10-27 02:00:00 20.8 4 Este 30 Nordeste 0 -- -- 74
2017-10-27 01:00:00 21 15 Nordeste 34 Este 0 -- -- 74
2017-10-27 00:00:00 21.1 26 Nordeste 45 Nordeste 0 -- -- 74
2017-10-26 23:00:00 21.5 26 Nordeste 48 Nordeste 0 -- -- 73
2017-10-26 22:00:00 21.8 30 Nordeste 48 Nordeste 0 -- -- 69
2017-10-26 21:00:00 22.2 34 Nordeste 47 Nordeste 0 -- -- 64
2017-10-26 20:00:00 22.7 35 Nordeste 51 Nordeste 0 -- -- 61
2017-10-26 19:00:00 22.8 26 Nordeste 41 Nordeste 0 -- -- 55
2017-10-26 18:00:00 23 32 Este 49 Este 0 -- -- 66
2017-10-26 17:00:00 23.2 32 Este 56 Nordeste 0 -- -- 67
2017-10-26 16:00:00 23.8 29 Este 48 Este 0 -- -- 67
2017-10-26 15:00:00 23.7 24 Este 45 Este 0 -- -- 66
2017-10-26 14:00:00 24.1 28 Este 53 Este 0 -- -- 60
2017-10-26 13:00:00 25 22 Este 40 Este 0 -- -- 50
2017-10-26 12:00:00 24.5 23 Este 43 Este 0 -- -- 53
2017-10-26 11:00:00 24.6 17 Este 28 Nordeste 0 -- -- 46
2017-10-26 10:00:00 24 8 Nordeste 20 Nordeste 0 -- -- 42
2017-10-26 09:00:00 22.3 7 Norte 26 Nordeste 0 -- -- 45
2017-10-26 08:00:00 22.1 15 Nordeste 23 Nordeste 0 -- -- 47
2017-10-26 07:00:00 22.3 12 Nordeste 27 Nordeste 0 -- -- 45
2017-10-26 06:00:00 22.5 16 Nordeste 27 Nordeste 0 -- -- 44
2017-10-26 05:00:00 22.4 8 Nordeste 17 Nordeste 0 -- -- 44
2017-10-26 04:00:00 22.5 9 Nordeste 23 Nordeste 0 -- -- 43
2017-10-26 03:00:00 22.2 8 Norte 19 Nordeste 0 -- -- 45
2017-10-26 02:00:00 22.7 10 Norte 21 Nordeste 0 -- -- 44
2017-10-26 01:00:00 23.1 11 Nordeste 24 Nordeste 0 -- -- 43
2017-10-26 00:00:00 23.1 11 Nordeste 21 Nordeste 0 -- -- 41
2017-10-25 23:00:00 23.2 8 Nordeste 23 Nordeste 0 -- -- 40
2017-10-25 22:00:00 23.3 14 Nordeste 21 Norte 0 -- -- 40
2017-10-25 21:00:00 23.1 12 Nordeste 18 Nordeste 0 -- -- 44
2017-10-25 20:00:00 23.4 14 Este 21 Nordeste 0 -- -- 47
2017-10-25 19:00:00 23.5 14 Este 25 Nordeste 0 -- -- 52
2017-10-25 18:00:00 23.8 17 Nordeste 33 Este 0 -- -- 51
2017-10-25 17:00:00 22.9 25 Este 39 Este 0 -- -- 66
2017-10-25 16:00:00 23.7 27 Este 41 Este 0 -- -- 59
2017-10-25 15:00:00 23.3 27 Este 39 Este 0 -- -- 60
2017-10-25 14:00:00 23.7 25 Este 34 Este 0 -- -- 62
2017-10-25 13:00:00 24.2 19 Este 35 Este 0 -- -- 60
2017-10-25 12:00:00 23.8 19 Este 29 Este 0 -- -- 57
2017-10-25 11:00:00 23.5 9 Este 19 Este 0 -- -- 52
2017-10-25 10:00:00 21 3 Oeste 12 Este 0 -- -- 60
2017-10-25 09:00:00 19.1 6 Este 9 Este 0 -- -- 67
2017-10-25 08:00:00 17.9 0 Calma 8 Oeste 0 -- -- 70
2017-10-25 07:00:00 18.5 3 Oeste 7 Norte 0 -- -- 65
2017-10-25 06:00:00 19.6 3 Noroeste 10 Noroeste 0 -- -- 56
2017-10-25 05:00:00 19.5 3 Noroeste 6 Norte 0 -- -- 63
2017-10-25 04:00:00 18.8 5 Norte 10 Oeste 0 -- -- 68
2017-10-25 03:00:00 19.1 5 Este 9 Este 0 -- -- 68
2017-10-25 02:00:00 19.2 4 Noroeste 12 Este 0 -- -- 71
2017-10-25 01:00:00 19.9 7 Nordeste 15 Nordeste 0 -- -- 74
2017-10-25 00:00:00 20.2 11 Nordeste 23 Nordeste 0 -- -- 74